Theta_e
311 308 310 311 310 313 316 316 324 331 338 336 337 341 344 344 343 344 340 340 340 341 341 340 339 337 336 335 334 333 334 333 331 331 332 328 323 319 316 311 309 311 322 324 323 319 314 314 315
308 310 313 309 312 314 313 316 336 337 336 333 334 336 342 344 342 340 340 340 340 341 341 340 339 337 336 335 334 335 335 333 332 331 326 321 318 317 315 310 309 310 310 311 312 309 309 310 310
308 313 309 310 310 312 314 330 336 334 332 332 332 330 334 343 341 339 340 341 340 341 341 340 338 337 336 336 336 336 335 332 331 326 321 318 317 316 315 310 308 308 308 308 308 307 307 307 307
312 310 306 311 313 313 317 328 334 334 331 331 332 336 331 336 339 340 341 341 340 340 339 339 338 337 337 336 336 335 332 331 327 322 318 318 316 316 314 308 306 307 306 309 311 311 308 307 307
313 305 309 311 312 312 313 326 328 333 332 331 330 334 335 341 340 341 341 340 340 339 338 337 337 337 336 336 334 332 331 327 321 318 318 316 314 313 308 310 309 311 314 315 315 315 314 312 313
309 305 310 312 313 317 321 327 333 332 331 332 335 333 334 341 341 342 341 340 339 339 338 337 337 336 335 332 332 332 328 322 319 318 316 315 313 311 316 316 316 316 315 315 315 315 315 314 314
309 307 311 314 320 319 318 329 331 331 332 332 329 332 337 340 341 341 340 339 339 340 338 338 336 335 333 334 331 327 324 320 318 317 317 318 314 318 319 318 317 317 316 316 316 315 315 315 315
307 307 314 319 319 323 313 322 327 330 332 326 326 339 342 337 340 340 339 338 338 341 342 342 337 336 335 332 327 323 321 318 318 317 321 321 321 322 322 320 319 318 317 317 317 316 316 316 316
307 309 312 317 323 322 315 321 316 324 328 326 324 330 336 340 339 337 337 336 337 337 342 338 337 334 329 327 323 321 319 318 317 321 323 322 323 323 323 322 321 319 318 317 318 318 318 317 317
310 309 311 311 314 324 324 322 324 329 329 326 324 332 338 340 337 335 335 335 336 339 341 335 331 327 326 323 319 317 317 318 322 325 324 324 324 324 323 321 319 318 317 318 318 318 319 319 318
310 312 309 313 312 311 317 317 320 328 330 326 330 334 333 337 337 335 335 334 330 326 330 327 324 322 320 318 317 317 320 322 326 327 326 325 325 324 320 318 317 317 318 318 319 319 318 318 318
311 309 309 310 311 310 316 311 326 320 325 325 329 332 330 332 332 332 331 330 329 328 326 324 323 319 317 317 318 320 324 325 325 326 325 324 324 322 319 318 318 319 319 318 317 317 317 318 317
311 310 310 308 308 307 308 313 320 313 322 321 325 329 328 329 328 328 326 325 327 327 328 327 325 321 320 319 322 324 325 327 327 327 326 325 325 323 319 320 320 318 316 315 314 313 314 315 315
310 308 309 309 307 307 309 311 313 313 322 321 324 326 324 326 324 325 325 326 327 328 328 329 328 325 323 325 323 324 326 328 328 328 327 327 324 323 320 320 315 312 311 311 311 312 312 312 311
308 309 309 309 311 311 310 313 312 316 323 322 321 321 319 320 320 320 322 325 328 330 330 330 330 329 325 326 325 326 327 327 328 329 329 326 322 321 316 313 311 310 310 310 311 310 309 308 307
309 308 309 310 313 311 309 309 308 318 324 324 322 323 320 317 318 321 322 321 323 326 329 329 329 328 327 327 326 323 323 325 322 319 316 315 314 312 311 310 310 309 309 309 307 306 305 305 304
308 310 312 314 312 313 311 313 312 310 322 319 318 318 318 317 317 319 321 321 321 322 328 329 328 328 325 323 325 321 315 314 313 313 312 311 311 310 310 310 308 308 307 306 304 303 302 302 302
310 311 311 313 313 313 313 318 316 315 316 317 315 315 315 314 314 316 322 323 323 327 330 330 327 326 324 323 321 311 312 312 313 312 311 310 310 309 307 306 306 305 305 304 302 301 300 300 300
312 312 312 312 312 316 317 317 316 317 316 315 314 314 314 313 313 316 317 322 325 326 328 327 327 323 317 314 314 313 313 312 311 310 308 307 306 305 305 304 303 302 301 300 299 298 298 298 300
314 314 314 315 315 316 317 315 313 314 315 316 315 314 314 313 312 313 313 317 321 323 324 319 317 316 315 315 315 316 314 311 309 306 305 304 303 303 302 301 300 299 299 298 297 296 296 298 300
318 315 316 316 318 316 318 318 315 315 316 316 315 314 314 313 313 311 310 311 313 313 314 313 313 312 312 311 311 311 310 310 308 305 303 302 302 301 300 299 300 300 298 298 297 297 296 298 298
320 317 315 317 318 321 315 323 318 317 319 317 317 314 314 313 310 309 309 310 310 310 310 311 311 311 311 310 310 310 310 309 306 304 301 302 302 301 302 302 301 300 298 298 297 297 296 297 296
320 315 315 314 314 314 317 319 316 317 320 318 316 315 314 312 310 309 310 310 310 310 311 310 310 310 310 310 309 309 308 305 304 302 303 303 303 302 301 301 301 299 298 297 296 296 296 294 293
317 318 317 316 316 317 317 317 317 317 318 317 315 315 313 312 310 310 310 310 310 310 310 310 311 310 309 308 307 307 306 304 303 303 303 303 302 302 301 300 299 298 296 295 294 292 291 290 289
316 318 321 321 317 320 318 318 317 316 315 317 316 314 312 311 310 310 308 308 308 309 309 309 308 305 304 304 303 303 303 303 302 302 302 302 301 301 300 299 297 295 293 293 292 290 290 289 288
316 318 319 322 319 320 317 321 318 314 313 314 314 313 310 311 308 307 306 306 307 306 306 305 303 302 303 303 302 302 302 301 301 301 301 301 300 300 299 298 296 294 296 292 291 289 289 288 288
317 315 314 316 312 317 316 317 316 314 314 314 313 311 310 307 305 304 305 305 305 305 304 304 304 301 299 298 297 297 298 296 293 293 293 293 296 299 298 297 295 295 293 292 291 290 289 288 288
316 313 315 312 316 317 316 318 318 317 316 314 312 310 307 305 305 303 302 302 302 303 304 303 298 296 296 295 295 294 293 292 290 290 290 292 296 297 297 296 294 292 292 291 290 289 289 288 288
316 315 313 313 310 312 312 316 312 314 315 312 310 308 306 305 303 301 301 300 300 300 299 298 297 296 295 294 293 293 292 291 291 290 290 293 297 296 295 294 294 293 291 290 289 288 288 288 288
315 315 310 308 313 308 306 311 309 309 310 310 309 307 305 303 302 301 301 298 296 296 296 296 295 295 294 293 293 292 292 292 291 291 291 293 295 295 295 293 292 293 291 289 288 288 288 288 287
Wind_Speed
3 3 4 2 3 5 2 5 1 3 4 1 8 6 6 1 1 1 12 12 21 26 26 25 24 24 23 22 21 19 17 15 15 13 11 11 11 11 11 10 10 12 13 13 13 12 11 10 10
4 1 0 2 4 2 4 3 4 9 7 6 9 7 10 3 3 8 11 16 25 26 25 24 23 24 23 22 20 17 16 15 14 12 10 11 10 10 10 11 11 11 12 13 12 12 11 11 11
3 3 3 4 3 4 4 3 14 6 6 4 6 6 1 2 4 10 9 24 27 25 24 24 23 23 22 21 19 17 15 14 13 11 11 10 9 9 10 10 10 10 12 12 12 12 11 11 12
5 4 3 4 5 6 4 7 9 4 2 9 8 6 1 5 5 8 23 26 25 23 22 22 22 22 21 20 18 16 14 13 11 11 10 9 8 9 10 10 10 11 12 12 12 12 12 12 12
3 3 3 1 5 5 4 10 7 5 1 13 6 5 2 4 10 26 28 25 25 21 21 21 21 21 20 18 17 16 14 12 12 10 9 8 8 9 10 10 11 13 14 15 15 15 15 15 15
3 3 3 2 4 4 3 6 8 5 3 4 4 3 2 15 23 23 25 24 25 24 22 20 19 19 18 17 16 15 13 12 11 9 8 7 8 10 11 11 12 14 14 16 16 16 16 16 15
5 4 3 3 2 4 3 5 6 6 7 2 5 4 2 6 18 23 24 21 22 21 21 20 19 17 17 16 15 13 12 11 10 9 8 8 9 10 11 11 11 12 12 12 14 15 16 16 16
4 4 3 3 3 3 2 3 2 7 3 3 6 6 7 7 22 25 20 19 18 18 18 18 18 18 17 15 14 14 13 11 9 8 9 9 9 8 8 8 8 8 8 7 9 10 13 14 15
3 4 0 4 3 3 4 3 2 2 6 4 4 5 12 26 24 21 20 18 18 18 18 19 19 19 17 17 15 14 12 11 11 10 9 8 8 7 7 4 4 5 5 4 4 5 6 8 10
4 3 8 5 4 9 12 5 7 5 3 4 4 10 23 25 24 22 20 18 17 19 21 21 19 18 18 16 16 15 14 13 12 11 9 8 7 4 3 3 2 3 3 5 7 7 7 8 11
3 4 6 3 4 9 8 3 2 10 2 5 12 12 14 18 17 20 19 24 30 27 23 21 19 18 18 17 16 16 15 14 11 9 9 7 5 3 3 3 2 4 5 7 8 8 8 10 12
1 6 5 6 9 5 9 5 4 2 3 8 16 20 16 12 16 19 20 28 27 26 24 22 19 17 16 16 16 15 14 13 11 9 7 5 3 2 3 1 2 3 4 6 9 10 11 12 14
4 3 3 5 7 6 9 5 6 2 6 10 12 15 14 13 14 16 23 27 24 24 24 22 19 18 17 15 14 13 12 10 8 7 6 5 4 3 2 0 2 4 6 8 10 12 12 12 12
6 3 3 4 6 5 8 3 2 1 6 10 14 14 10 13 16 16 15 21 22 22 22 20 19 15 13 10 9 10 10 9 9 9 6 5 4 4 3 1 2 6 10 13 15 14 11 9 10
4 5 5 6 3 4 7 4 1 2 6 11 11 6 6 6 4 7 13 21 23 22 20 20 19 15 11 5 7 10 12 13 15 11 8 5 2 2 3 1 5 9 13 13 10 8 7 8 8
6 6 4 3 2 3 5 4 8 5 10 7 6 6 7 6 4 1 4 14 16 16 16 14 16 14 9 8 5 3 15 9 4 7 9 8 6 4 5 8 11 12 10 8 8 8 9 9 12
6 3 2 1 3 3 5 2 8 8 7 6 6 7 7 6 9 6 3 4 13 12 11 13 14 12 11 6 9 5 6 12 11 9 7 7 7 10 13 13 11 9 8 9 10 11 13 12 14
5 3 1 4 1 12 8 5 7 9 8 6 7 7 7 7 7 10 6 7 10 12 16 20 19 15 9 6 12 13 13 11 7 7 6 8 9 9 9 9 9 8 9 10 11 12 13 14 17
4 4 3 3 4 8 5 6 8 8 8 8 7 7 7 7 5 13 17 20 20 22 22 18 14 14 18 21 15 10 6 3 2 5 6 7 7 7 7 8 9 10 11 11 12 14 16 18 19
5 6 4 3 4 9 8 9 6 8 4 4 6 7 7 6 6 15 23 28 27 23 18 18 21 20 18 12 6 1 2 4 4 5 7 7 8 9 10 11 13 13 12 11 12 15 17 12 14
4 5 3 5 10 6 6 6 6 5 5 5 5 3 3 5 7 8 16 23 25 24 23 21 19 16 10 9 8 5 3 2 1 3 6 8 8 9 11 14 17 15 10 7 9 13 16 9 8
3 1 5 8 4 4 2 2 1 1 2 3 0 2 3 7 5 9 14 17 20 19 17 15 13 11 9 6 5 3 2 0 1 3 7 10 14 16 19 23 16 12 5 7 10 9 10 8 8
3 6 6 3 5 5 4 5 3 4 4 6 6 5 4 1 4 7 12 11 11 11 11 9 8 7 4 3 3 3 0 1 4 6 7 18 24 23 20 20 18 10 4 5 4 5 7 8 6
4 6 6 4 3 2 4 5 4 7 8 5 4 6 6 5 2 12 12 12 7 8 8 7 6 8 7 7 9 9 7 4 1 5 11 18 22 23 24 17 7 1 6 8 9 10 9 6 6
6 5 3 3 3 4 1 3 6 11 7 9 10 9 6 4 3 3 5 17 12 14 12 12 14 19 19 19 18 15 13 10 11 15 16 23 27 23 26 11 2 4 8 10 11 10 6 5 5
3 5 5 6 3 3 3 4 5 6 8 9 7 4 7 6 5 5 9 19 18 18 17 17 18 18 16 15 14 12 10 12 15 18 22 26 26 24 20 9 6 6 9 9 7 7 7 7 9
2 3 3 6 3 3 3 4 3 4 5 6 7 7 7 7 7 7 12 17 17 17 17 16 15 14 14 14 15 16 16 16 18 21 23 26 24 22 12 10 3 15 5 8 11 12 10 10 12
2 5 3 3 3 2 3 4 4 5 9 7 7 8 7 7 7 6 11 15 17 18 18 15 15 14 13 14 15 16 17 19 20 22 25 26 21 10 8 4 7 4 6 12 14 11 11 14 14
2 2 6 5 3 4 1 5 5 9 11 10 8 7 10 8 7 6 11 14 17 17 16 15 10 9 10 11 13 15 15 17 21 24 24 22 16 9 10 8 11 10 13 11 11 12 14 15 14
1 3 4 4 3 1 3 5 4 8 8 9 9 7 6 7 6 8 12 14 14 14 12 11 6 5 6 9 10 11 13 16 20 22 21 18 11 12 12 13 12 17 14 11 12 13 15 14 13
Wind_Direction
252 267 256 210 62 64 250 256 224 92 71 333 75 69 122 262 155 218 139 156 168 161 162 159 153 148 144 140 137 134 130 127 122 120 115 110 104 97 88 80 74 74 72 66 59 53 47 41 37
279 116 188 66 88 102 275 242 88 106 145 135 78 26 32 313 37 130 132 152 167 162 159 156 155 149 145 142 139 137 136 132 131 128 126 114 107 94 86 80 76 72 69 62 54 49 40 35 29
203 175 80 105 123 199 201 185 112 166 136 100 99 63 342 251 123 120 147 152 159 158 160 158 154 149 148 146 146 145 142 139 137 134 124 114 103 90 82 81 80 71 61 53 44 38 36 30 28
178 38 24 91 226 251 193 142 120 123 53 54 107 143 172 315 122 152 153 157 155 158 159 156 155 154 152 151 149 146 147 143 142 134 123 116 100 90 85 81 74 65 58 50 40 34 33 29 29
72 67 67 287 257 252 246 150 146 124 82 137 165 154 106 14 143 147 153 155 153 156 155 158 160 157 156 155 154 150 150 146 142 137 130 114 104 95 86 76 70 65 60 53 50 48 45 46 45
45 97 76 233 294 314 35 114 121 149 91 91 109 104 96 134 129 141 155 156 158 156 159 161 164 162 159 159 157 156 153 150 147 141 131 117 113 105 92 86 76 74 68 62 56 52 52 48 38
124 96 193 165 246 339 84 70 133 113 163 227 120 89 89 113 138 154 153 153 155 156 162 165 165 165 164 164 162 158 156 157 158 147 135 123 116 103 94 84 77 75 70 60 56 50 49 45 36
112 96 182 54 199 94 100 81 205 78 164 139 147 145 164 159 152 154 154 158 161 163 166 170 172 173 172 171 168 164 165 165 160 158 139 133 117 108 96 86 75 70 66 55 49 43 46 44 34
116 62 197 146 185 126 150 96 336 50 101 26 12 132 144 148 147 149 156 161 169 175 178 178 181 180 180 178 172 171 167 168 171 162 150 138 129 116 98 76 53 50 38 20 4 358 9 12 19
94 105 200 209 210 144 180 141 152 110 105 32 41 67 127 144 153 161 167 170 178 186 189 186 185 183 184 180 176 174 176 174 167 166 161 153 144 127 89 75 34 22 356 330 327 322 321 322 328
143 187 181 340 229 164 142 90 92 120 234 208 155 138 139 153 167 169 178 178 183 185 185 183 185 187 185 181 182 179 180 176 173 175 174 171 178 138 115 91 48 357 355 352 353 348 340 340 334
140 224 213 220 187 120 132 122 95 148 236 156 157 152 154 165 184 182 182 187 187 188 186 186 185 187 188 188 190 183 186 185 185 183 175 180 189 147 143 137 43 11 354 354 350 349 342 333 329
206 315 15 133 110 106 110 124 171 243 91 110 130 155 168 171 192 200 190 194 191 193 195 192 192 192 192 194 197 198 200 199 198 199 196 200 222 231 203 220 30 2 343 340 341 338 330 325 331
177 99 36 28 129 99 120 112 90 347 130 124 153 173 171 181 197 204 198 205 202 203 204 200 201 200 202 219 231 235 241 236 235 229 232 249 273 274 286 11 20 347 350 345 339 334 336 345 350
110 75 22 22 30 90 108 33 0 103 135 148 174 167 81 89 170 220 221 215 211 213 214 211 202 202 202 220 324 299 294 268 264 251 246 266 285 119 135 48 354 347 342 338 335 346 356 357 11
65 49 93 289 40 32 83 256 7 330 134 124 99 92 87 60 63 348 261 234 229 225 223 208 192 174 110 73 353 353 298 256 290 117 104 106 88 38 13 354 352 350 354 358 5 8 10 12 8
20 160 135 12 51 104 60 16 335 325 110 86 75 82 86 73 40 34 359 220 221 227 202 160 166 157 156 208 224 207 120 109 97 95 74 49 18 2 357 348 348 3 13 22 29 27 19 10 354
197 152 132 186 27 46 64 12 341 6 86 77 77 71 67 57 25 39 68 103 152 152 148 145 141 151 160 155 145 129 95 79 53 28 13 9 359 350 356 9 13 14 7 7 5 5 5 8 355
170 124 158 355 62 73 65 60 19 27 49 66 67 83 84 70 62 90 92 96 106 112 115 116 119 126 124 124 123 107 84 70 62 42 39 31 28 22 18 18 12 8 5 12 10 6 9 4 358
86 103 85 128 23 89 96 57 30 32 38 65 108 98 101 96 60 71 93 98 99 102 107 115 111 125 134 123 109 351 266 158 109 66 39 38 30 25 18 9 4 357 352 353 3 10 8 4 5
61 125 199 135 98 94 87 42 22 11 40 41 35 79 84 101 107 90 95 104 106 108 113 111 112 114 109 89 80 88 115 156 127 22 32 34 20 9 2 0 350 337 325 336 357 1 1 2 358
80 101 103 141 92 150 36 186 74 336 40 5 314 77 109 116 92 108 101 96 102 103 103 104 104 99 89 81 53 20 310 290 34 76 59 32 11 355 339 327 325 322 317 355 4 18 16 13 21
108 99 135 105 82 103 12 90 260 136 230 214 214 221 198 134 170 123 94 86 87 97 101 97 86 83 68 37 9 355 40 97 127 97 24 350 343 341 326 314 312 295 299 343 7 29 8 351 343
134 86 50 54 80 45 215 127 239 195 193 187 199 223 201 178 159 96 103 94 76 93 98 94 81 44 38 30 23 21 27 46 12 305 312 343 339 329 322 303 275 236 5 7 7 1 0 7 13
69 63 13 8 10 221 348 114 233 208 184 184 186 204 174 124 110 77 100 104 102 88 84 79 75 66 61 56 53 48 33 11 343 325 322 328 326 320 313 286 178 47 32 6 349 349 340 327 357
93 144 153 201 189 225 21 238 253 224 185 177 190 116 133 142 127 130 127 104 95 87 82 82 80 74 59 52 45 32 10 344 334 328 322 318 314 306 295 223 198 190 320 344 327 305 302 309 327
172 57 159 109 360 77 253 287 321 85 146 159 171 136 150 143 143 143 120 104 99 94 90 91 85 70 59 49 39 30 17 3 348 335 325 319 315 302 255 201 199 317 12 327 318 282 292 296 297
131 143 65 10 134 278 293 275 233 190 196 181 167 162 160 160 148 140 117 107 103 100 104 106 92 75 56 36 26 17 3 354 348 342 336 324 312 273 227 228 320 343 305 302 277 278 295 288 293
23 50 57 106 103 158 243 261 223 209 198 178 180 168 163 159 150 134 105 103 108 115 116 103 84 64 44 30 18 9 2 356 350 345 341 331 302 254 214 227 254 272 287 285 279 294 295 296 291
151 131 123 110 203 68 144 273 348 260 195 152 168 150 132 141 146 128 124 126 121 121 115 104 109 70 41 17 7 359 353 352 349 344 341 336 279 244 255 264 291 296 285 275 284 293 294 288 284